Location: Godiavel Galaoual
(15.2485°N, 12.6604°W)
Time: 09:12:27
(UTC+00:00)

Hubble Space Telescope - Pass Details

Date: 16 May 2021
Orbit: 535 x 539 km, 28.5° (Epoch: 19 June)

Event Time Altitude Azimuth Distance (km) Brightness Sun altitude
Exits shadow 05:48:00 11° 246° (WSW) 1,729 2.7 -8.4°
Maximum altitude 05:52:00 83° 334° (NNW) 537 0.8 -7.5°
Drops below altitude 10° 05:56:06 10° 63° (ENE) 1,772 5.2 -6.6°
Sets 05:58:21 0° 64° (ENE) 2,662 7.0 -6.1°
